• In Italy
  • List of Countries
  • For 7 days
  • Water Temperature
  • Satellite Maps
  • Weather Map
  • Weather Widgets
  • user-avatar
    Login

    Hourly Weather Miskolc

    Today, 11 December, Monday

    Time Temperature Precipitation Wind Pressure Humidity
    00:00 -2°C° 0.1 mm 6 mps 740 mmHg 67%
    01:00 0°C° 0 mm 3 mps 740 mmHg 75%
    02:00 -1°C° 0.2 mm 4 mps 740 mmHg 78%
    03:00 0°C° 0.2 mm 4 mps 740 mmHg 80%
    04:00 0°C° 0.2 mm 5 mps 740 mmHg 82%
    05:00 0°C° 1 mm 5 mps 740 mmHg 86%
    06:00 0°C° 1 mm 5 mps 739 mmHg 89%
    07:00 0°C° 0 mm 4 mps 739 mmHg 93%
    08:00 +1°C° 0.5 mm 4 mps 739 mmHg 92%
    09:00 +1°C° 0.5 mm 4 mps 740 mmHg 91%
    10:00 +3°C° 0.5 mm 4 mps 740 mmHg 90%
    11:00 +4°C° 0.1 mm 4 mps 740 mmHg 88%
    12:00 +5°C° 0.1 mm 4 mps 740 mmHg 86%
    13:00 +5°C° 0 mm 4 mps 739 mmHg 77%
    14:00 +5°C° 0 mm 4 mps 740 mmHg 79%
    15:00 +4°C° 0 mm 4 mps 740 mmHg 80%
    16:00 +4°C° 0 mm 3 mps 740 mmHg 82%
    17:00 +4°C° 0 mm 4 mps 740 mmHg 82%
    18:00 +4°C° 0 mm 4 mps 740 mmHg 83%
    19:00 +5°C° 0 mm 4 mps 740 mmHg 83%
    20:00 +5°C° 0 mm 5 mps 740 mmHg 82%
    21:00 +5°C° 0 mm 5 mps 740 mmHg 81%
    22:00 +5°C° 0 mm 6 mps 740 mmHg 80%
    23:00 +5°C° 0 mm 6 mps 740 mmHg 80%

    Tomorrow, 12 December, Tuesday

    Time Temperature Precipitation Wind Pressure Humidity
    00:00 +5°C° 0 mm 6 mps 740 mmHg 80%
    01:00 +5°C° 0 mm 6 mps 740 mmHg 80%
    02:00 +5°C° 0 mm 6 mps 740 mmHg 81%
    03:00 +6°C° 0 mm 5 mps 740 mmHg 81%
    04:00 +6°C° 0 mm 5 mps 740 mmHg 81%
    05:00 +6°C° 0 mm 5 mps 740 mmHg 81%
    06:00 +6°C° 0 mm 5 mps 740 mmHg 82%
    07:00 +6°C° 0 mm 5 mps 741 mmHg 82%
    08:00 +7°C° 0 mm 6 mps 741 mmHg 80%
    09:00 +8°C° 0 mm 6 mps 742 mmHg 78%
    10:00 +9°C° 0 mm 6 mps 743 mmHg 76%
    11:00 +10°C° 0 mm 6 mps 743 mmHg 75%
    12:00 +10°C° 0 mm 6 mps 743 mmHg 74%
    13:00 +12°C° 0 mm 5 mps 744 mmHg 73%
    14:00 +10°C° 0 mm 5 mps 744 mmHg 76%
    15:00 +11°C° 0 mm 4 mps 744 mmHg 79%
    16:00 +10°C° 0 mm 3 mps 745 mmHg 82%
    17:00 +10°C° 0.4 mm 3 mps 745 mmHg 84%
    18:00 +9°C° 0.4 mm 3 mps 746 mmHg 86%
    19:00 +9°C° 0.4 mm 3 mps 746 mmHg 87%
    20:00 +8°C° 0.5 mm 3 mps 747 mmHg 88%
    21:00 +7°C° 0.5 mm 3 mps 747 mmHg 89%
    22:00 +7°C° 0.5 mm 2 mps 748 mmHg 90%
    23:00 +6°C° 0.4 mm 2 mps 748 mmHg 89%

    Day after tomorrow, 13 December, Wednesday

    Time Temperature Precipitation Wind Pressure Humidity
    00:00 +6°C° 0.4 mm 2 mps 748 mmHg 88%
    01:00 +6°C° 0.4 mm 2 mps 749 mmHg 87%
    02:00 +5°C° 0.8 mm 2 mps 749 mmHg 86%
    03:00 +5°C° 0.8 mm 2 mps 749 mmHg 85%
    04:00 +4°C° 0.8 mm 3 mps 749 mmHg 84%
    05:00 +3°C° 0.5 mm 3 mps 749 mmHg 84%
    06:00 +4°C° 0.5 mm 2 mps 750 mmHg 84%
    07:00 +4°C° 0.5 mm 2 mps 750 mmHg 84%
    08:00 +4°C° 0.2 mm 2 mps 750 mmHg 83%
    09:00 +4°C° 0.2 mm 2 mps 751 mmHg 81%
    10:00 +5°C° 0.2 mm 1 mps 751 mmHg 80%
    11:00 +5°C° 0 mm 1 mps 751 mmHg 78%
    12:00 +6°C° 0 mm 1 mps 750 mmHg 76%
    13:00 +6°C° 0 mm 1 mps 750 mmHg 75%
    14:00 +5°C° 0 mm 1 mps 750 mmHg 77%
    15:00 +5°C° 0 mm 1 mps 749 mmHg 80%
    16:00 +4°C° 0 mm 1 mps 749 mmHg 83%
    17:00 +4°C° 0 mm 1 mps 749 mmHg 84%
    18:00 +3°C° 0 mm 1 mps 749 mmHg 86%
    19:00 +3°C° 0 mm 1 mps 749 mmHg 87%
    20:00 +2°C° 0 mm 1 mps 749 mmHg 87%
    21:00 +2°C° 0 mm 1 mps 749 mmHg 87%
    22:00 +2°C° 0 mm 1 mps 748 mmHg 87%
    23:00 +2°C° 0 mm 1 mps 748 mmHg 86%

    14 December, Thursday

    Time Temperature Precipitation Wind Pressure Humidity
    00:00 +1°C° 0 mm 1 mps 747 mmHg 85%
    01:00 -1°C° 0 mm 2 mps 747 mmHg 84%
    02:00 -1°C° 0 mm 2 mps 746 mmHg 84%
    03:00 -1°C° 0 mm 2 mps 746 mmHg 84%
    04:00 -1°C° 0 mm 2 mps 745 mmHg 84%
    05:00 -1°C° 0 mm 2 mps 745 mmHg 85%
    06:00 -1°C° 0 mm 3 mps 745 mmHg 86%
    07:00 0°C° 0 mm 3 mps 745 mmHg 87%
    08:00 0°C° 0 mm 3 mps 745 mmHg 86%
    09:00 0°C° 0 mm 4 mps 745 mmHg 86%
    10:00 +1°C° 0 mm 4 mps 745 mmHg 85%
    11:00 +2°C° 0.1 mm 3 mps 744 mmHg 85%
    12:00 +2°C° 0.1 mm 3 mps 744 mmHg 84%
    13:00 +3°C° 0.1 mm 3 mps 744 mmHg 83%
    14:00 +4°C° 0.3 mm 2 mps 744 mmHg 86%
    15:00 +3°C° 0.3 mm 2 mps 743 mmHg 89%
    16:00 +3°C° 0.3 mm 2 mps 743 mmHg 92%
    17:00 +4°C° 0.3 mm 1 mps 743 mmHg 93%
    18:00 +4°C° 0.3 mm 1 mps 743 mmHg 94%
    19:00 +4°C° 0.3 mm 1 mps 743 mmHg 95%
    20:00 +4°C° 0.4 mm 1 mps 742 mmHg 96%
    21:00 +4°C° 0.4 mm 1 mps 742 mmHg 96%
    22:00 +3°C° 0.4 mm 0 mps 741 mmHg 97%
    23:00 +4°C° 0.3 mm 1 mps 740 mmHg 97%

    15 December, Friday

    Time Temperature Precipitation Wind Pressure Humidity
    00:00 +4°C° 0.3 mm 1 mps 740 mmHg 97%
    01:00 +4°C° 0.3 mm 1 mps 739 mmHg 97%
    02:00 +4°C° 0.2 mm 1 mps 738 mmHg 97%
    03:00 +3°C° 0.2 mm 2 mps 738 mmHg 96%
    04:00 +3°C° 0.2 mm 2 mps 737 mmHg 96%
    05:00 +4°C° 0.1 mm 2 mps 737 mmHg 95%
    06:00 +4°C° 0.1 mm 2 mps 737 mmHg 95%
    07:00 +4°C° 0.1 mm 3 mps 738 mmHg 94%
    08:00 +4°C° 0.1 mm 3 mps 738 mmHg 92%
    09:00 +4°C° 0.1 mm 4 mps 738 mmHg 90%
    10:00 +5°C° 0.1 mm 4 mps 739 mmHg 87%
    11:00 +5°C° 0 mm 4 mps 739 mmHg 82%
    12:00 +5°C° 0 mm 3 mps 739 mmHg 77%
    13:00 +5°C° 0 mm 3 mps 739 mmHg 71%
    14:00 +6°C° 0 mm 2 mps 739 mmHg 74%
    15:00 +6°C° 0 mm 1 mps 739 mmHg 77%
    16:00 +5°C° 0 mm 1 mps 739 mmHg 80%
    17:00 +5°C° 0.8 mm 1 mps 738 mmHg 82%
    18:00 +4°C° 0.8 mm 2 mps 738 mmHg 83%
    19:00 +4°C° 0.8 mm 2 mps 737 mmHg 84%
    20:00 +3°C° 2.2 mm 3 mps 737 mmHg 85%
    21:00 +2°C° 2.2 mm 3 mps 736 mmHg 87%
    22:00 +1°C° 2.2 mm 4 mps 735 mmHg 88%
    23:00 +1°C° 1.5 mm 4 mps 735 mmHg 89%

    16 December, Saturday

    Time Temperature Precipitation Wind Pressure Humidity
    00:00 +1°C° 1.5 mm 4 mps 735 mmHg 90%
    01:00 +1°C° 1.5 mm 4 mps 735 mmHg 90%
    02:00 +2°C° 0.5 mm 3 mps 735 mmHg 90%
    03:00 +2°C° 0.5 mm 3 mps 735 mmHg 90%
    04:00 +2°C° 0.5 mm 3 mps 735 mmHg 90%
    05:00 +3°C° 0 mm 2 mps 736 mmHg 90%
    06:00 +2°C° 0 mm 2 mps 736 mmHg 89%
    07:00 +2°C° 0 mm 2 mps 737 mmHg 89%
    08:00 +4°C° 0 mm 1 mps 737 mmHg 88%
    09:00 +4°C° 0 mm 1 mps 738 mmHg 88%
    10:00 +4°C° 0 mm 1 mps 738 mmHg 87%
    11:00 +4°C° 0.1 mm 1 mps 738 mmHg 87%
    12:00 +3°C° 0.1 mm 2 mps 739 mmHg 86%
    13:00 +4°C° 0.1 mm 2 mps 739 mmHg 86%
    14:00 +3°C° 0.1 mm 2 mps 739 mmHg 86%
    15:00 +4°C° 0.1 mm 1 mps 740 mmHg 86%
    16:00 +4°C° 0.1 mm 1 mps 740 mmHg 87%
    17:00 +3°C° 0.1 mm 1 mps 740 mmHg 87%
    18:00 +3°C° 0.1 mm 1 mps 741 mmHg 87%
    19:00 +3°C° 0.1 mm 1 mps 741 mmHg 87%
    20:00 +3°C° 0 mm 1 mps 742 mmHg 87%
    21:00 +2°C° 0 mm 1 mps 742 mmHg 88%
    22:00 +2°C° 0 mm 1 mps 742 mmHg 88%
    23:00 +1°C° 0 mm 1 mps 743 mmHg 88%
    Show more